TimeEDT,TemperatureF,Dew PointF,Humidity,Sea Level PressureIn,VisibilityMPH,Wind Direction,Wind SpeedMPH,Gust SpeedMPH,PrecipitationIn,Events,Conditions,WindDirDegrees,DateUTC
12:12 AM,62.6,60.8,94,29.76,6.0,SSE,9.2,-,0.00,Rain,Light Rain,150,2013-04-05 04:12:00
12:27 AM,62.6,60.8,94,29.76,7.0,South,5.8,-,0.00,,Overcast,180,2013-04-05 04:27:00
12:37 AM,62.6,60.8,94,29.75,6.0,South,6.9,-,0.00,,Overcast,180,2013-04-05 04:37:00
12:57 AM,61.0,59.0,93,29.77,5.0,SSW,9.2,-,0.00,,Overcast,210,2013-04-05 04:57:00
1:08 AM,62.6,59.0,88,29.76,6.0,SW,10.4,-,N/A,,Overcast,220,2013-04-05 05:08:00
1:19 AM,62.6,60.8,94,29.76,2.5,SW,15.0,20.7,N/A,,Overcast,220,2013-04-05 05:19:00
1:26 AM,60.8,59.0,94,29.75,1.0,SW,13.8,-,N/A,,Overcast,230,2013-04-05 05:26:00
1:33 AM,60.8,59.0,94,29.75,0.8,SW,11.5,24.2,N/A,,Mist,230,2013-04-05 05:33:00
1:57 AM,57.9,57.0,97,29.76,0.5,SW,9.2,-,N/A,Fog,Fog,230,2013-04-05 05:57:00
2:36 AM,57.2,57.2,100,29.75,3.0,West,6.9,-,N/A,,Overcast,260,2013-04-05 06:36:00
2:57 AM,57.0,55.9,96,29.76,4.0,West,9.2,-,N/A,,Overcast,270,2013-04-05 06:57:00
3:30 AM,51.8,51.8,100,29.76,2.0,WNW,9.2,-,N/A,,Overcast,300,2013-04-05 07:30:00
3:57 AM,51.1,50.0,96,29.79,2.5,WNW,12.7,19.6,N/A,,Overcast,300,2013-04-05 07:57:00
4:41 AM,48.2,46.4,93,29.78,3.0,NW,15.0,23.0,N/A,,Overcast,310,2013-04-05 08:41:00
4:57 AM,46.9,46.0,97,29.81,3.0,WNW,11.5,23.0,N/A,,Overcast,300,2013-04-05 08:57:00
5:48 AM,46.4,44.6,93,29.83,10.0,NW,5.8,-,N/A,,Overcast,320,2013-04-05 09:48:00
5:57 AM,45.0,44.1,97,29.84,10.0,NW,8.1,-,N/A,,Overcast,320,2013-04-05 09:57:00
6:57 AM,44.1,42.1,93,29.85,9.0,NW,13.8,19.6,N/A,,Overcast,320,2013-04-05 10:57:00
7:34 AM,44.6,42.8,93,29.86,10.0,Variable,6.9,-,N/A,,Overcast,0,2013-04-05 11:34:00
7:57 AM,45.0,43.0,93,29.88,10.0,NNW,9.2,-,N/A,,Overcast,340,2013-04-05 11:57:00
8:57 AM,46.0,43.0,89,29.92,10.0,Calm,Calm,-,N/A,,Overcast,0,2013-04-05 12:57:00
9:57 AM,48.0,44.1,86,29.87,10.0,North,10.4,18.4,N/A,,Overcast,350,2013-04-05 13:57:00
10:35 AM,50.0,44.6,82,29.90,10.0,NNE,5.8,-,N/A,,Overcast,20,2013-04-05 14:35:00
10:57 AM,51.1,45.0,80,29.91,10.0,North,9.2,-,N/A,,Overcast,360,2013-04-05 14:57:00
11:24 AM,53.6,44.6,72,29.92,10.0,NE,10.4,-,N/A,,Mostly Cloudy,50,2013-04-05 15:24:00
11:57 AM,53.1,46.0,77,29.96,10.0,Variable,4.6,-,N/A,,Overcast,0,2013-04-05 15:57:00
12:57 PM,53.1,46.0,77,29.94,10.0,NNW,6.9,-,N/A,,Overcast,340,2013-04-05 16:57:00
1:21 PM,51.8,44.6,76,29.92,10.0,NNW,8.1,-,N/A,,Overcast,340,2013-04-05 17:21:00
1:57 PM,52.0,46.0,80,29.93,10.0,North,6.9,-,N/A,,Overcast,360,2013-04-05 17:57:00
2:26 PM,53.6,46.4,77,29.91,10.0,Variable,6.9,-,N/A,,Overcast,0,2013-04-05 18:26:00
2:57 PM,53.1,45.0,74,29.91,10.0,North,9.2,-,N/A,,Overcast,360,2013-04-05 18:57:00
3:57 PM,54.0,44.1,69,29.91,10.0,North,6.9,-,N/A,,Overcast,360,2013-04-05 19:57:00
4:57 PM,55.0,44.1,67,29.91,10.0,North,9.2,-,N/A,,Mostly Cloudy,10,2013-04-05 20:57:00
5:27 PM,55.4,44.6,67,29.91,10.0,North,3.5,-,N/A,,Scattered Clouds,10,2013-04-05 21:27:00
5:57 PM,57.0,44.1,62,29.92,10.0,North,5.8,-,N/A,,Partly Cloudy,10,2013-04-05 21:57:00
6:57 PM,55.9,44.1,64,29.94,10.0,North,6.9,-,N/A,,Clear,10,2013-04-05 22:57:00
7:57 PM,48.9,44.1,83,29.97,10.0,Calm,Calm,-,N/A,,Clear,0,2013-04-05 23:57:00
8:57 PM,46.9,43.0,86,30.00,10.0,Calm,Calm,-,N/A,,Clear,0,2013-04-06 00:57:00
9:57 PM,45.0,42.1,90,30.02,10.0,Calm,Calm,-,N/A,,Clear,0,2013-04-06 01:57:00
10:57 PM,44.1,41.0,89,30.03,9.0,Calm,Calm,-,N/A,,Clear,0,2013-04-06 02:57:00
11:57 PM,42.1,39.0,89,30.04,10.0,Calm,Calm,-,N/A,,Clear,0,2013-04-06 03:57:00